EHI
0 0 0 0 0 0 0 0 0 0 1 3 6 6 4 3 4 7 10 12 12 16 22 25 24 24 22 19 17 15 13 14 16 14 12 12 10 9 12 14 14 14 15 15
0 0 0 0 0 0 0 0 0 0 1 3 5 5 3 3 4 6 7 9 10 14 19 23 22 21 20 17 15 14 12 13 14 14 12 11 10 9 12 14 15 15 15 14
0 0 0 0 0 0 1 1 0 0 1 3 4 3 3 3 4 5 6 6 7 12 16 18 17 16 14 13 12 12 12 13 14 13 11 11 10 11 12 14 15 15 14 13
0 0 0 0 0 0 1 1 1 0 1 2 3 2 2 3 4 5 6 5 7 12 15 15 14 11 8 8 9 10 12 14 13 12 10 11 12 12 12 13 13 14 13 11
0 0 0 0 0 0 1 1 1 1 1 2 1 1 1 2 3 5 6 7 9 12 14 13 11 8 5 5 6 8 11 13 12 10 10 12 12 12 12 12 11 10 10 9
0 0 0 0 0 0 0 0 0 1 2 2 1 1 1 1 2 5 8 9 10 11 11 11 10 7 4 4 4 6 10 12 11 9 9 10 10 10 10 10 9 8 7 7
0 0 0 0 0 0 0 0 0 1 2 2 2 1 1 1 3 6 8 8 8 8 9 9 8 6 4 3 3 5 8 10 10 9 8 8 8 8 9 9 8 8 7 7
0 0 0 0 0 0 0 0 0 1 2 1 1 1 1 2 4 6 6 5 5 6 6 5 4 5 4 4 3 4 6 7 7 7 7 6 7 7 7 7 7 8 7 6
0 0 0 0 0 0 0 0 0 1 1 1 1 1 1 2 5 6 5 4 3 3 3 1 2 3 5 5 4 4 5 4 5 5 6 6 6 7 7 6 7 7 6 4
0 0 0 0 0 1 0 0 1 1 0 1 2 2 1 2 3 4 4 4 3 2 1 0 1 2 3 4 5 5 5 4 4 5 5 5 5 6 6 6 6 6 4 2
0 0 0 0 0 1 1 1 2 2 1 0 1 1 1 0 1 2 4 5 4 2 1 0 0 1 1 2 4 5 6 5 5 5 5 5 4 3 3 4 4 4 2 1
0 0 0 0 0 0 1 2 2 2 1 0 0 0 0 0 1 3 3 4 4 3 1 1 0 0 1 1 1 3 5 5 5 4 4 4 3 2 1 1 1 1 1 0
0 0 0 0 0 0 1 1 1 1 1 0 0 0 0 0 2 3 3 2 2 1 1 1 1 1 2 1 1 2 3 4 4 3 3 3 3 2 1 0 0 0 0 0
0 0 0 0 0 0 0 0 0 0 0 0 0 0 0 0 1 1 1 1 0 0 0 0 0 1 3 3 2 3 3 3 3 3 3 3 3 2 1 0 0 0 0 0
0 0 0 0 0 0 0 0 0 0 0 0 1 1 0 0 0 0 0 0 0 0 0 0 0 1 3 3 3 3 3 3 2 2 2 2 1 1 0 0 0 0 0 0
0 0 0 0 0 0 0 0 0 0 0 0 1 2 1 0 0 0 0 0 0 0 0 0 0 1 2 2 2 2 2 1 1 1 1 1 0 0 0 0 0 0 0 0
0 0 0 0 0 0 0 0 0 0 0 0 1 2 2 1 0 0 0 0 0 0 0 0 0 1 1 1 1 1 1 0 0 0 0 0 0 0 0 0 0 0 0 0
0 0 0 0 0 0 0 0 0 0 0 0 0 1 1 1 0 0 0 0 0 0 0 0 0 0 0 0 0 0 0 0 0 0 0 1 0 0 0 0 0 0 0 0
0 0 0 0 0 0 0 0 0 0 0 0 0 0 0 0 0 0 0 0 0 0 0 0 0 0 0 0 0 0 0 0 0 0 0 0 0 0 0 0 0 0 0 0
0 0 0 0 0 0 0 0 0 0 0 0 0 0 1 1 0 0 0 0 0 0 0 0 0 0 0 0 0 0 0 0 0 0 0 0 0 0 0 0 0 0 0 0
0 0 0 0 0 0 0 0 0 0 0 0 0 0 1 2 1 0 0 0 0 0 0 0 0 0 0 0 0 0 0 0 0 0 0 0 0 0 0 0 0 0 0 0
0 0 0 0 0 0 0 0 0 0 0 0 0 0 1 1 1 0 0 0 0 0 0 0 0 0 0 0 0 0 0 0 0 0 0 0 0 0 0 0 0 0 0 0
0 0 0 0 0 0 0 0 0 0 0 0 0 0 0 0 0 0 0 0 0 0 0 0 0 0 0 0 0 0 0 0 0 0 0 0 0 0 0 0 0 0 0 0
0 0 0 0 0 0 0 0 0 0 0 0 0 0 0 0 0 0 0 0 0 0 0 0 0 0 0 0 0 0 0 0 0 0 0 0 0 0 0 0 0 0 0 0
0 0 0 0 0 0 0 0 0 0 0 0 0 0 0 0 0 0 0 0 0 0 0 0 0 0 0 0 0 0 0 0 0 0 0 0 0 0 0 0 0 0 0 0
0 0 0 0 0 0 0 0 0 0 0 0 0 0 0 0 0 0 0 0 0 0 0 0 0 0 0 0 0 0 0 0 0 0 0 0 0 0 0 0 0 0 0 0
0 0 0 0 0 0 0 0 0 0 0 0 0 0 0 0 0 0 0 0 0 0 0 0 0 0 0 0 0 0 0 0 0 0 0 0 0 0 0 0 0 0 0 0
Wind_Speed
9 7 7 9 10 11 13 13 13 9 7 5 3 3 2 2 2 3 3 3 3 3 3 3 3 4 4 4 4 4 5 5 5 5 5 5 5 4 4 5 5 5 4 4
9 8 9 10 10 11 12 12 11 9 7 2 1 1 1 2 2 3 3 3 3 3 3 3 3 3 3 4 3 4 5 5 4 5 5 5 5 4 4 4 4 4 4 4
9 7 9 11 9 10 9 9 9 9 3 1 1 2 1 1 1 2 2 2 3 2 2 2 3 3 4 4 4 4 4 4 4 4 4 4 4 4 4 4 4 4 4 4
7 6 11 1 1 4 6 5 4 3 2 1 1 1 0 0 0 0 0 1 1 1 2 2 3 3 3 4 4 4 4 4 3 4 4 4 3 4 4 3 3 4 4 3
7 9 8 4 2 3 5 5 3 3 2 1 1 1 2 2 2 1 1 1 0 1 1 2 2 3 3 4 4 3 3 3 2 3 3 3 3 3 3 3 3 3 4 4
8 9 8 1 3 1 5 6 2 2 3 2 3 5 1 2 1 1 1 1 1 1 1 1 1 2 3 3 3 2 3 3 2 2 2 3 2 2 2 3 3 3 3 3
10 9 5 4 2 3 7 1 2 1 3 3 3 2 2 1 0 1 1 2 1 1 2 1 1 2 2 2 1 2 2 2 2 1 2 2 2 2 3 3 3 3 3 3
8 9 3 5 2 3 3 4 1 1 1 1 1 2 2 1 1 1 1 1 1 1 2 2 1 1 1 1 1 1 1 1 1 1 1 2 2 2 3 3 3 3 3 3
4 2 4 1 1 2 2 1 1 1 1 1 2 2 2 2 1 1 1 1 1 1 2 2 1 1 1 0 0 1 2 2 2 1 1 1 2 2 3 3 3 3 3 2
4 2 1 1 1 1 1 1 1 0 1 3 3 3 3 2 2 2 2 2 2 2 1 1 1 1 1 0 0 1 2 2 2 2 1 1 1 1 2 2 3 2 2 2
5 4 3 3 2 1 0 1 1 1 1 2 3 3 3 3 3 2 2 2 2 1 1 1 0 0 0 0 1 1 2 2 2 2 1 1 1 1 1 1 1 2 1 1
4 2 4 2 2 1 1 1 1 1 1 2 3 3 3 3 2 3 3 3 2 2 1 1 0 0 0 0 1 1 2 2 1 1 1 1 1 1 3 2 2 1 2 2
4 4 4 3 2 2 2 1 1 2 2 2 2 2 3 2 2 3 3 3 2 2 1 0 0 0 0 1 1 1 1 1 1 1 1 1 1 1 1 1 2 1 1 1
3 3 3 2 2 1 2 2 2 2 2 3 2 2 2 2 3 3 3 2 2 2 1 1 0 0 1 1 1 2 2 2 2 1 1 1 1 1 2 2 2 2 3 3
3 4 3 2 2 2 2 2 3 3 3 2 2 3 2 2 2 3 2 2 2 2 2 1 0 0 1 1 1 2 2 1 1 1 2 2 1 2 2 1 1 1 2 4
3 3 3 3 3 3 3 3 3 3 3 2 2 2 2 2 2 2 3 3 3 2 1 1 1 1 1 1 2 2 2 1 2 2 2 2 2 2 1 1 1 1 1 1
3 3 2 3 3 3 3 3 3 2 2 3 3 3 2 2 2 3 2 3 2 2 1 1 1 2 2 2 3 2 2 2 4 3 2 2 2 1 1 2 1 1 1 1
3 3 3 3 3 2 2 2 2 2 3 3 3 3 3 3 3 2 2 2 3 2 1 1 1 2 2 2 3 2 2 2 2 2 2 2 2 2 2 2 2 2 1 2
2 2 2 2 2 2 3 2 2 2 2 1 2 2 2 2 3 3 3 3 3 3 2 1 1 3 2 1 3 3 2 2 2 2 2 2 3 2 2 2 2 1 1 1
2 2 2 3 3 3 3 3 2 2 2 2 3 3 3 3 3 3 4 3 3 2 2 2 3 3 3 2 4 3 2 2 2 2 2 2 2 2 2 2 2 1 1 1
1 2 2 3 3 3 2 2 2 2 2 3 4 4 4 3 3 3 4 3 2 1 2 3 3 2 2 2 4 3 2 2 2 2 2 2 2 2 2 2 2 2 2 2
1 1 2 2 2 2 2 2 2 3 3 3 4 4 3 3 3 3 3 2 1 1 3 3 2 0 1 3 4 3 2 2 2 2 2 2 2 2 2 2 2 2 1 1
1 1 2 2 2 2 2 2 3 3 3 3 4 3 3 3 2 3 3 2 2 2 3 1 2 2 3 4 3 2 2 2 2 2 2 2 1 1 2 2 1 1 1 1
2 1 2 2 2 2 3 2 2 2 3 3 3 3 3 3 2 2 2 2 2 3 2 2 3 3 4 4 3 2 2 2 2 2 2 2 1 1 1 1 1 1 0 1
2 2 1 2 3 2 2 2 2 3 4 3 3 3 3 2 2 2 2 2 3 4 3 4 5 4 4 3 3 2 2 2 2 1 1 1 1 1 1 1 1 1 0 1
2 2 1 2 2 2 2 2 2 2 2 2 2 2 2 2 2 2 2 3 4 4 3 3 4 5 4 3 3 2 2 2 2 3 2 1 2 1 1 1 1 1 1 1
3 2 2 2 2 2 2 2 2 2 2 2 1 1 1 2 2 2 3 3 3 4 3 3 3 3 3 3 2 2 2 2 2 2 2 2 2 2 1 2 1 1 1 2
Wind_Direction
261 269 257 248 242 233 238 251 260 261 258 257 240 243 240 237 220 209 203 199 192 185 175 178 184 192 195 195 200 206 204 203 205 202 201 202 205 213 221 227 224 220 224 224
247 245 247 251 246 239 242 249 253 259 264 294 59 219 234 239 226 214 209 203 196 190 183 189 197 203 199 201 200 205 209 206 202 201 200 203 210 216 219 223 223 217 216 218
245 239 249 245 244 241 234 241 251 259 274 65 243 244 255 253 242 237 210 194 193 191 196 204 213 213 211 210 209 208 211 209 204 202 202 204 209 211 215 216 213 214 214 214
246 233 242 233 43 260 247 254 257 262 260 256 286 300 330 5 312 7 54 160 181 193 196 201 208 211 215 203 204 203 203 205 205 207 203 204 208 216 216 215 215 214 212 212
243 240 247 208 186 234 243 239 240 241 219 147 102 177 157 70 28 31 7 24 81 191 179 183 194 199 200 197 195 197 202 206 201 202 206 199 205 210 205 207 213 212 205 201
239 250 251 177 115 230 253 233 175 211 204 199 212 238 153 90 28 38 40 62 77 100 129 134 169 183 188 187 187 197 207 205 197 192 203 196 192 202 195 200 207 213 198 199
239 246 254 74 110 206 236 23 81 231 224 225 243 332 56 82 86 78 81 85 97 111 101 88 117 155 168 166 189 223 215 185 169 169 193 185 181 196 200 204 197 207 198 197
238 242 231 88 160 245 5 32 3 256 217 222 150 106 118 121 146 126 111 109 111 104 82 81 101 134 147 159 209 206 158 138 137 151 188 164 170 190 200 204 196 198 197 200
264 290 53 110 324 4 349 329 322 228 162 173 180 171 154 157 172 161 152 145 131 118 94 79 68 94 125 79 228 160 128 122 128 138 147 144 172 196 204 205 216 206 199 204
248 235 272 271 289 299 307 332 344 203 183 191 192 183 177 175 170 166 157 147 139 127 115 89 52 37 51 52 282 146 124 130 143 155 162 157 205 223 224 212 210 211 212 220
252 267 263 232 258 293 52 92 104 151 197 204 192 186 181 178 173 159 142 135 131 135 139 123 103 113 146 174 202 167 156 160 166 169 162 157 145 1 292 314 334 279 269 258
275 293 277 284 277 255 217 211 182 161 176 208 198 191 191 186 174 158 149 144 138 136 126 101 112 178 164 188 194 193 178 169 175 175 156 183 149 102 54 30 73 60 1 325
300 302 298 295 279 243 226 210 204 193 191 212 204 188 188 183 169 156 153 152 153 155 157 150 321 232 221 193 187 203 212 187 215 195 183 228 215 202 150 125 114 118 134 91
278 273 259 256 274 257 232 201 199 197 196 202 198 191 185 175 166 168 167 170 173 175 189 190 162 42 333 231 210 212 209 172 224 217 221 238 241 242 231 211 184 178 161 151
261 261 261 264 251 241 227 197 187 193 197 202 197 200 197 195 185 183 178 180 181 181 175 171 123 34 326 286 235 228 228 194 208 241 232 221 236 251 254 227 214 192 167 153
257 258 248 240 239 236 219 205 200 204 209 216 217 218 217 216 203 184 182 184 185 172 157 184 208 247 261 257 243 232 225 186 228 239 237 223 224 237 243 236 220 211 212 195
236 243 245 249 245 233 227 219 214 216 218 224 228 228 224 212 197 188 189 185 174 164 175 214 229 237 237 244 249 243 236 189 202 232 231 221 219 223 223 233 230 213 226 72
239 242 249 255 253 243 240 232 226 227 231 235 224 210 207 212 221 203 188 180 179 173 190 233 235 249 238 237 257 258 246 237 225 229 221 218 220 222 225 222 215 222 215 142
233 241 254 259 259 249 245 243 236 235 237 230 221 214 219 221 216 203 198 206 212 211 212 220 212 232 227 227 265 244 245 240 235 228 224 192 217 223 225 218 209 213 214 192
235 247 255 261 262 258 249 243 242 245 255 247 236 229 225 220 213 211 212 222 233 244 202 202 210 217 216 201 254 247 242 243 235 228 230 226 218 218 222 214 209 209 219 232
231 239 245 256 262 263 250 237 233 236 246 246 240 241 238 221 217 226 231 228 214 228 208 192 221 220 213 214 237 239 224 227 229 229 233 237 231 227 225 219 216 213 218 233
275 264 270 270 265 265 252 232 226 228 229 230 234 240 234 226 225 228 235 264 234 210 217 201 208 161 281 251 231 229 224 219 221 220 227 236 235 228 221 221 227 228 223 220
322 310 301 287 271 257 242 232 229 230 228 229 232 226 224 230 232 236 226 220 213 198 227 193 113 138 248 243 241 237 228 224 229 221 221 228 228 230 223 219 230 234 231 230
322 325 317 306 286 254 241 241 228 228 231 230 225 230 237 234 228 233 238 179 184 193 214 127 146 188 234 242 241 236 228 224 227 225 223 228 224 230 227 225 230 225 218 245
307 295 282 275 266 262 250 232 220 220 228 225 224 224 233 243 250 238 226 192 169 195 194 164 178 204 227 242 240 233 226 225 237 251 235 238 243 233 229 219 215 217 207 248
284 274 283 275 277 273 259 240 229 224 236 234 231 231 236 233 232 220 215 205 195 210 222 189 181 200 227 237 237 234 233 201 198 217 225 237 244 233 215 205 212 231 231 246
261 250 246 250 241 249 261 260 255 258 253 246 232 226 228 222 218 213 216 215 207 206 209 206 202 207 220 228 224 222 226 224 221 223 217 214 223 217 202 210 232 239 237 230